Simultaneous Nadir Overpasses (SNOs) Predictions

Prediction of SNOs between AQUA and METOP-A Satellite Orbit:

Table of predicted SNOs for the next 14.0 days since TLE Epoch: 5/21/2021
Index Date (AQUA) Time (AQUA) Lat,Lon (AQUA) SZA (AQUA ) Date (METOP-A) Time (METOP-A) Lat,Lon (METOP-A) SZA (METOP-A ) Distance(km) Time Diff (sec)
1 05/22/2021 08:43:58 77.38, 33.00 57.34 05/22/2021 08:43:34 77.37, 32.96 57.34 2.10 24
2 05/22/2021 09:33:25 -77.42,-159.50 122.63 05/22/2021 09:34:15 -77.40,-159.58 122.65 3.07 50
3 05/25/2021 04:18:13 77.40, 99.37 56.84 05/25/2021 04:17:55 77.41, 99.50 56.85 3.32 18
4 05/25/2021 05:07:40 -77.43, -93.11 123.13 05/25/2021 05:08:36 -77.45, -93.04 123.13 2.56 56
5 05/27/2021 23:02:54 -77.08, -0.59 124.01 05/27/2021 23:01:46 -77.03, -3.07 123.87 62.01 68
6 05/27/2021 23:52:28 77.42, 165.72 56.40 05/27/2021 23:52:17 77.41, 165.84 56.39 3.03 11
7 05/28/2021 00:41:55 -77.45, -26.74 123.58 05/28/2021 00:42:58 -77.45, -26.68 123.60 1.52 63
8 05/30/2021 18:37:15 -77.39, 64.67 124.07 05/30/2021 18:36:01 -77.34, 64.53 124.08 6.22 74
9 05/30/2021 19:26:41 77.41,-127.77 55.96 05/30/2021 19:26:38 77.41,-127.83 55.97 1.51 3
10 05/30/2021 20:16:09 -77.47, 39.59 123.97 05/30/2021 20:17:19 -77.45, 39.66 124.01 3.10 70
11 06/02/2021 14:11:28 -77.37, 131.16 124.45 06/02/2021 14:10:21 -77.38, 131.05 124.41 3.01 67
12 06/02/2021 15:00:56 77.44, -61.48 55.63 06/02/2021 15:01:00 77.41, -61.50 55.60 3.53 4



Historial Predications of SNOs between AQUA and METOP-A
